GFSSW_850_dewp_321.txt.gz
Dewpoint
-8 -8 -8 -7 -5 -1 6 9 8 9 9 8 8 9 7 5 3 3 -1 -7 -14 -9 -6 -13 -15 -12 -9 -6 -4 -4 -2 -4 -5 -4 -8 -8 -7 -6 -6 -6 -6 -6 -7 -7 -6
-8 -8 -8 -9 -8 -6 1 8 5 8 8 8 7 7 8 5 4 0 -6 -10 -9 -6 -9 -13 -13 -11 -9 -7 -4 -4 -6 -6 -7 -9 -10 -9 -7 -7 -6 -5 -5 -6 -6 -6 -6
-7 -7 -7 -7 -8 -8 -7 -3 5 6 9 8 7 7 7 7 2 -7 -9 -5 -5 -6 -10 -12 -11 -10 -10 -7 -5 -6 -5 -9 -10 -10 -10 -10 -9 -8 -6 -6 -7 -7 -7 -6 -6
-7 -8 -9 -9 -9 -8 -8 -7 -6 0 5 7 7 8 7 6 2 -3 -1 -5 -6 -8 -5 -10 -10 -10 -8 -7 -6 -5 -6 -8 -8 -8 -7 -7 -9 -6 -7 -9 -10 -10 -9 -7 -7
-6 -7 -8 -9 -10 -10 -10 -9 -7 -6 4 6 7 7 7 5 2 2 -2 -6 -7 -7 -5 -10 -10 -10 -9 -9 -10 -5 -7 -8 -8 -8 -8 -8 -7 -6 -7 -8 -8 -8 -7 -7 -7
-18 -12 -10 -10 -10 -10 -10 -9 -8 -7 -0 7 8 8 6 4 -0 1 -4 -6 -9 -6 -3 -9 -9 -8 -8 -7 -8 -8 -7 -5 -5 -4 -6 -6 -6 -6 -6 -5 -6 -7 -6 -6 -7
-21 -16 -10 -9 -10 -10 -10 -9 -9 -8 -8 2 6 6 5 -0 -0 0 -3 -7 -7 -6 -3 -6 -7 -6 -5 -4 -4 -3 -1 -1 -1 -2 -2 -4 -1 -3 -3 -4 -5 -5 -6 -6 -6
-25 -20 -12 -9 -8 -9 -8 -4 -4 -8 -10 -4 3 5 3 2 1 -1 -5 -7 -7 -6 -5 -5 -4 -3 -4 -4 -0 1 -1 3 -0 -5 -4 -3 -0 -3 -6 -5 -5 -5 -5 -6 -6
-27 -20 -11 -9 -7 -6 -1 1 2 2 2 2 5 4 3 0 -4 -4 -5 -7 -9 -6 -6 -4 -2 -3 -2 1 1 0 2 2 1 -5 -4 -5 -3 -5 -6 -5 -6 -5 -5 -6 -7
-27 -25 -14 -10 -8 -6 1 3 4 6 5 5 5 3 2 -1 -0 -4 -8 -10 -7 -3 -4 -3 -4 -2 -3 -0 2 -1 2 1 2 -4 -4 -3 -3 -5 -6 -5 -5 -5 -4 -5 -5
-25 -24 -16 -10 -8 -6 3 2 2 3 2 4 1 1 2 1 -1 -4 -6 -8 -8 -4 -1 -3 -1 0 -2 -1 -2 -1 -1 0 -2 -6 -6 -5 -5 -7 -9 -6 -4 -4 -4 -4 -4
-21 -10 -7 -10 -7 -4 3 3 3 2 2 0 3 2 3 3 -1 -7 -7 -9 -7 -5 -3 -4 -2 -4 -4 -4 -3 -2 -1 -2 -5 -10 -9 -8 -8 -7 -5 -5 -4 -5 -3 -7 -10
-16 -19 -0 -3 -4 -3 4 4 1 1 3 2 4 1 -3 -6 -7 -8 -8 -10 -9 -7 -4 -5 -6 -6 -5 -4 -3 -3 -2 -5 -9 -10 -9 -7 -3 -4 -4 -8 -9 -9 -11 -16 -18
1 -15 -6 0 -3 3 4 4 2 1 1 -1 1 -8 -10 -13 -12 -11 -10 -7 -11 -9 -9 -8 -10 -11 -8 -9 -8 -8 -9 -10 -9 -8 -3 -7 1 -3 -2 -4 -9 -11 -12 -16 -21
2 -1 -13 2 1 0 3 3 2 2 -3 -5 -8 -10 -13 -10 -2 -1 -5 -6 -3 -5 -4 -1 -10 -11 -10 -11 -12 -9 -10 -10 -9 -6 -3 -3 -2 -2 -2 -4 -6 -11 -17 -21 -20
-1 2 -6 3 1 -1 4 4 2 -2 -2 -3 -8 -8 -0 -0 1 -4 -6 -7 -8 -7 -6 -5 -8 -11 -11 -11 -12 -9 -6 -6 -3 -3 -1 -5 -2 -2 -2 -3 -11 -14 -16 -19 -14
1 -1 -2 1 1 -1 2 4 1 1 -3 3 3 1 -1 -0 1 -0 -2 -2 -2 -2 -2 -2 -5 -11 -11 -10 -9 -7 -5 -1 -0 -2 1 -4 -2 -1 -5 -9 -9 -12 -15 -18 -9
-1 -0 -4 -0 2 -1 1 3 2 -5 -1 0 -0 -1 -1 -2 -1 -1 -3 -3 -3 -3 -3 1 1 -9 -10 -8 -3 -7 -5 0 1 -1 -5 -3 -0 -2 -9 -10 -15 -15 -14 -15 -7
-0 -1 -3 -4 1 1 2 2 -2 -2 -1 1 -1 -1 3 -1 -1 -0 -1 -2 -2 -3 -0 -2 1 -10 -11 -12 -12 -7 -5 -6 -5 -7 -4 -6 -7 -9 -11 -12 -14 -12 -16 -11 -6
-0 -1 -2 -5 -0 1 1 1 -1 -3 2 -0 -1 0 1 1 -1 -1 -0 -2 -1 -0 -0 -2 1 -6 -9 -11 -11 -9 -8 -1 -2 0 -5 -9 -8 -7 -11 -14 -12 -9 -14 -9 -6
-1 -0 -1 -1 1 2 1 0 -0 1 1 1 -0 0 -1 1 1 2 -0 -1 1 -0 -1 -2 -2 -2 -7 -7 -6 -8 -5 -6 -2 -3 -4 -7 -6 -5 -11 -11 -9 -10 -13 -8 -6
-1 1 1 2 1 1 2 -0 0 2 0 1 0 1 1 0 1 2 2 2 0 -1 -1 -2 -4 -3 -2 -7 -8 -9 -8 -4 1 -2 -4 -5 -4 -8 -11 -11 -12 -13 -10 -6 -5
-1 0 1 1 2 -0 -2 -0 -1 -0 -1 0 1 2 2 1 1 1 2 0 -1 -0 -2 -3 -5 -3 -4 -4 -8 -4 -8 -3 -4 -3 -2 -2 -4 -9 -10 -12 -15 -13 -8 -6 -5
-1 0 1 0 0 -1 0 0 0 1 1 1 2 2 1 2 1 0 1 -0 -0 0 1 -2 -4 -3 -1 -0 -1 -3 -5 -2 -0 -1 -1 -1 -5 -12 -11 -14 -13 -10 -7 -6 -5
-1 -0 -1 0 -1 -1 -1 -2 1 2 1 0 1 2 1 1 1 1 1 0 -1 -1 -1 -3 -3 -6 -3 -3 -1 -0 -3 -2 -0 -2 0 -4 -8 -10 -10 -13 -13 -9 -7 -6 -5
-1 -1 -0 -3 -2 -2 -1 -2 0 1 0 1 1 1 0 0 -3 -1 -1 -2 -2 -3 -0 -5 -3 -2 -2 -3 -2 -0 -1 -0 -2 -2 -2 -3 -3 -9 -12 -13 -11 -8 -7 -7 -6
-1 -1 -1 -1 -5 -2 -1 -2 -2 -1 0 -0 0 0 0 -0 -1 -1 -1 -1 -2 -3 -4 -3 -4 -3 -2 -1 -2 -0 -0 -1 -1 -2 -2 -1 -4 -12 -12 -14 -11 -8 -7 -7 -6

GFSSW_850_dewp_324.txt.gz
Dewpoint
-7 -7 -7 -8 -8 -8 -8 -6 2 8 8 9 8 8 6 8 6 4 1 -5 -10 -10 -7 -11 -13 -12 -9 -3 -4 -5 -6 -3 -5 -6 -8 -7 -7 -6 -5 -6 -6 -5 -6 -6 -4
-10 -10 -10 -10 -10 -9 -9 -8 -7 -1 6 6 9 8 6 7 7 5 -2 -8 -11 -7 -9 -12 -11 -10 -8 -5 -3 -5 -4 -4 -8 -9 -9 -9 -8 -8 -6 -6 -5 -6 -6 -7 -6
-20 -15 -14 -14 -13 -12 -12 -11 -10 -8 -5 2 6 8 7 7 5 -2 -10 -6 -4 -6 -10 -11 -11 -10 -9 -6 -5 -4 -4 -8 -11 -11 -9 -9 -8 -8 -8 -7 -9 -8 -6 -7 -6
-29 -27 -25 -20 -15 -14 -13 -12 -12 -10 -8 -2 2 6 7 7 4 -6 -5 -2 -5 -7 -5 -9 -9 -8 -7 -7 -6 -5 -7 -8 -7 -7 -7 -7 -7 -8 -7 -8 -8 -8 -6 -8 -6
-29 -28 -27 -23 -16 -14 -13 -13 -11 -11 -9 -7 5 7 8 6 5 3 1 -5 -6 -9 -3 -8 -8 -8 -6 -8 -7 -6 -7 -7 -7 -7 -7 -7 -7 -7 -7 -7 -7 -8 -8 -7 -6
-28 -28 -28 -28 -19 -14 -13 -8 -7 -9 -9 -7 1 7 7 5 3 2 -2 -6 -8 -8 -2 -4 -8 -8 -8 -9 -8 -8 -8 -8 -6 -5 -4 -4 -3 -5 -3 -4 -5 -6 -6 -5 -5
-26 -27 -26 -27 -22 -16 -13 -6 -1 -2 -5 -9 -5 5 6 4 1 -0 -5 -6 -10 -6 -3 -4 -7 -6 -6 -4 -4 -3 -1 -1 -0 -1 -1 -2 0 -1 -2 -3 -3 -4 -4 -5 -5
-23 -24 -26 -27 -24 -16 -14 -5 -1 -0 1 -7 -4 6 3 0 2 2 -3 -7 -8 -7 -5 -5 -5 -4 -4 -3 -1 0 1 3 -1 -3 -3 -3 -2 -3 -5 -5 -4 -5 -5 -5 -5
-19 -21 -23 -24 -23 -16 -13 -5 -0 3 5 3 4 4 2 1 1 0 -4 -8 -8 -7 -6 -4 -3 -2 -2 1 2 2 2 1 -0 -3 -4 -4 -4 -7 -5 -5 -6 -6 -7 -6 -5
-7 -17 -21 -16 -15 -13 -13 -2 0 5 5 5 4 3 2 -1 -5 -5 -7 -10 -6 -4 -4 -3 -3 -2 -1 1 4 0 1 0 -1 -4 -5 -4 -4 -6 -7 -7 -6 -6 -6 -4 -5
2 1 -11 -19 -2 -8 -9 1 3 3 3 2 2 2 1 1 -1 -5 -8 -9 -4 -3 -3 -2 -1 1 -1 -1 -2 -2 -2 -2 -3 -4 -5 -5 -7 -8 -10 -10 -8 -8 -6 -2 -5
0 3 1 -13 -12 -2 -5 4 3 1 1 -0 1 2 2 3 0 -5 -5 -6 -7 -5 -3 -2 -0 -4 -4 -4 -2 -2 -2 -3 -5 -8 -10 -8 -7 -6 -5 -3 -3 -2 -3 -3 -6
-1 1 2 -3 -11 -3 2 4 4 2 2 1 3 3 2 2 1 -3 -7 -8 -7 -4 -4 -2 -5 -7 -6 -4 -4 -4 -3 -5 -6 -10 -10 -8 -2 -1 -3 -6 -8 -6 -6 -11 -12
-4 0 -0 1 -4 1 -3 2 4 3 4 -2 3 -5 -7 -10 -9 -10 -9 -8 -9 -4 -7 -5 -9 -8 -8 -7 -7 -4 -8 -8 -9 -8 -0 -8 4 -3 -3 -2 -7 -9 -9 -8 -17
-1 -2 -0 0 -1 2 -1 2 4 3 1 -2 -2 -9 -13 -10 -4 -4 -9 -8 -0 -3 -5 -2 -8 -9 -7 -7 -10 -6 -10 -10 -9 -6 -4 -2 2 -1 -3 -1 -7 -9 -10 -12 -19
-2 -2 -1 -0 -1 -0 1 1 3 3 2 1 -9 -6 -7 -5 0 -5 -6 -7 -7 -4 -5 -3 -7 -8 -6 -11 -12 -10 -7 -6 -4 -3 4 -0 1 -1 -2 1 -7 -8 -15 -13 -18
-1 -1 -1 -1 -0 -1 1 3 3 3 -5 -0 -2 -3 0 1 2 0 2 0 1 3 3 -2 -3 -10 -11 -8 -9 -8 -4 5 5 4 5 -3 -1 1 -3 -8 -4 -5 -11 -11 -13
-2 -1 -1 -1 -2 1 2 3 3 -4 -4 -0 1 -0 0 -1 -1 -1 -0 1 -2 -1 2 0 1 -8 -10 -8 -3 -5 -4 4 6 4 -1 -3 2 -1 -8 -10 -9 -14 -13 -13 -8
-3 -1 -0 -2 -2 -0 1 3 2 -3 -2 1 -1 1 1 -0 0 -0 -1 -0 -1 -1 3 3 1 -9 -10 -11 -11 -5 -2 -6 -1 -4 -2 -3 -6 -7 -10 -11 -13 -11 -9 -10 -6
-1 -1 -1 -1 -1 0 2 -0 -1 -4 -0 -0 2 -0 2 1 -0 1 1 -2 -1 -1 -0 1 3 -4 -9 -11 -11 -8 -8 -1 -1 4 3 -5 -8 -11 -8 -10 -14 -8 -9 -9 -6
-1 -1 -0 -2 -1 0 1 -1 -1 -2 1 0 0 1 -0 1 0 1 0 -1 1 0 -1 -0 2 -0 -6 -5 -4 -7 -3 -2 0 0 2 -1 -4 -3 -4 -6 -6 -7 -10 -7 -6
-1 1 0 1 1 1 0 0 -1 -1 1 1 -0 -0 0 0 1 2 1 1 1 -1 1 -1 0 2 -0 -7 -8 -10 -5 -2 3 2 -1 -4 -2 -8 -7 -6 -8 -9 -8 -6 -6
-1 -1 -0 0 2 0 -1 1 0 -1 1 0 1 1 1 0 1 1 1 0 0 -1 -0 -1 -0 2 1 -2 -6 -4 -5 -4 -1 -0 0 0 -2 -9 -9 -9 -11 -10 -7 -6 -5
-1 1 -0 -0 -0 2 1 1 1 1 -0 -0 1 1 1 1 1 2 2 0 0 -1 -0 -2 -1 0 0 2 0 -0 -4 -3 -1 1 -1 -1 -1 -10 -13 -7 -11 -7 -7 -6 -5
-1 -0 -1 0 1 1 1 -1 0 1 1 0 2 2 1 1 2 2 1 -0 -1 -1 -0 -1 0 -2 -3 -3 -2 -1 -1 -2 0 -2 0 -2 -3 -7 -7 -6 -10 -9 -7 -6 -5
-1 -1 -1 -1 -1 -0 0 1 0 1 1 1 1 0 1 1 -1 -0 0 -0 -1 -2 -1 -2 -1 -2 -2 -4 -3 -1 -2 -2 -1 -2 0 -1 -0 -5 -9 -13 -10 -6 -6 -6 -6
-3 -1 -1 -2 -1 -0 -1 -1 -1 1 1 0 -0 1 1 0 -1 -1 -1 -1 -1 -1 -1 -1 -1 -1 -1 -2 -1 1 -1 -0 -1 -2 -2 0 -3 -9 -12 -16 -8 -6 -6 -6 -6

GFSSW_850_dewp_327.txt.gz
Dewpoint
-30 -27 -25 -20 -18 -17 -16 -14 -11 -9 -6 3 5 7 8 7 6 7 5 1 -2 -9 -7 -7 -9 -7 -6 -4 -3 -4 -4 -2 -3 -5 -6 -8 -8 -7 -6 -8 -7 -6 -6 -5 -3
-32 -31 -31 -31 -27 -23 -20 -18 -16 -13 -10 -8 -1 3 7 7 6 6 4 1 -7 -9 -6 -9 -9 -8 -7 -5 -4 -5 -2 -2 -6 -7 -7 -8 -8 -9 -7 -8 -8 -6 -5 -6 -3
-29 -31 -32 -32 -31 -29 -20 -17 -16 -16 -12 -10 -7 -1 3 6 5 0 -1 -8 -6 -5 -7 -8 -9 -9 -8 -6 -4 -5 -2 -5 -7 -10 -9 -9 -9 -9 -8 -7 -8 -8 -6 -4 -3
-23 -25 -26 -29 -30 -30 -28 -21 -16 -14 -13 -10 -8 0 6 7 3 -5 -9 -2 -2 -6 -7 -6 -7 -6 -5 -4 -6 -3 -5 -6 -7 -8 -7 -7 -7 -6 -7 -7 -7 -8 -8 -4 -4
-21 -21 -23 -23 -27 -28 -25 -20 -15 -11 -10 -10 -8 2 7 5 4 2 3 1 -3 -8 -6 -4 -4 -4 -3 -4 -6 -4 -5 -6 -6 -6 -6 -7 -7 -6 -7 -6 -7 -7 -6 -6 -5
-21 -21 -21 -22 -23 -25 -26 -18 -15 -6 -4 -7 -8 -0 6 4 2 3 1 -3 -9 -10 -5 -3 -3 -4 -5 -6 -6 -6 -7 -7 -7 -8 -7 -5 -5 -4 -3 -3 -4 -5 -5 -5 -5
-17 -19 -20 -20 -21 -23 -24 -18 -12 -5 -4 -3 -7 1 5 1 1 -4 -0 -8 -10 -9 -4 -4 -4 -5 -3 -4 -5 -5 -2 -3 -3 -3 -1 -1 1 0 -1 -2 -2 -2 -3 -3 -4
2 -1 -7 -14 -19 -19 -20 -19 -11 -2 -2 1 -5 4 2 2 2 1 -6 -8 -9 -7 -5 -3 -3 -3 -3 -3 -3 -1 -1 2 -0 -1 -1 -2 -0 -3 -3 -3 -4 -5 -5 -5 -4
3 2 1 1 -4 -18 -17 -18 -14 -2 5 5 5 4 1 1 0 -0 -5 -6 -6 -5 -4 -4 -2 -1 -1 -0 1 1 3 2 0 -2 -2 -2 -2 -5 -6 -6 -7 -7 -8 -8 -6
-0 -1 0 2 2 -3 -17 -16 -15 -0 5 6 4 3 2 -0 -5 -5 -6 -7 -6 -4 -3 -3 -2 -1 -1 2 5 2 2 -0 -0 -3 -4 -4 -3 -5 -6 -6 -6 -6 -6 -7 -5
-0 -0 -1 -1 3 2 -14 -1 -0 3 4 1 -0 -1 1 -4 -5 -7 -6 -6 -4 -2 -1 -2 -0 2 -1 -1 -0 -1 -2 -1 -3 -4 -3 -3 -3 -5 -7 -8 -8 -8 -7 -4 -4
-1 -1 -6 -4 -0 -0 -5 1 1 3 1 -1 -1 -1 0 -2 -2 -4 -6 -4 -3 -0 -2 -2 0 -2 -3 -3 -2 -1 -1 -1 -3 -6 -7 -7 -5 -4 -6 -4 -2 -2 -1 -2 -2
-0 -0 -0 -3 -3 -2 1 2 2 4 2 -3 -1 -1 -0 1 1 -0 -4 -3 -4 -2 -4 -0 -3 -7 -5 -4 -2 -2 -1 -2 -2 -7 -8 -7 -2 1 -3 -4 -7 -4 -2 -4 -6
-2 -2 -2 -1 -1 1 1 1 1 3 2 -7 -0 1 -0 1 1 -1 -4 -5 -5 -2 -2 -2 -5 -6 -5 -3 -3 0 -6 -5 -6 -5 2 -6 4 1 -2 0 -6 -7 -6 -6 -8
-1 -2 -2 -1 1 -0 -0 -0 1 3 2 -8 -0 -6 -3 -3 -6 -7 -8 -7 -1 -2 -4 -1 -5 -7 -6 -5 -7 -3 -9 -8 -7 -4 -2 -1 3 -0 -3 -1 -6 -8 -8 -8 -11
-2 -1 -2 -1 0 0 1 0 1 4 2 -2 -5 -6 -6 -6 -5 -6 -8 -6 -4 -1 -3 -2 -6 -6 -5 -10 -11 -9 -7 -5 -4 -2 4 3 2 -0 -0 2 -6 -8 -9 -12 -10
-3 -1 -3 -1 0 0 1 1 3 3 -7 -5 -4 -6 -4 -3 -0 -2 2 -0 2 4 3 -2 -3 -7 -9 -5 -9 -8 -2 5 5 5 6 -2 -1 1 -3 -6 -1 -1 -9 -9 -10
-4 -5 -0 -0 -0 -0 -0 2 2 2 -6 -0 0 -3 -2 2 2 1 1 2 -1 -0 2 -1 1 -5 -8 -6 -3 -4 -2 5 5 4 2 -4 2 -0 -7 -7 -7 -14 -10 -11 -7
-7 -0 0 0 -0 -0 -1 2 -1 2 -1 -3 1 2 3 1 1 0 0 -1 -1 -0 3 2 -1 -9 -10 -10 -9 -3 -1 -4 2 -1 0 -2 -3 -6 -10 -11 -11 -7 -7 -9 -5
-1 -0 0 -1 -0 -1 1 2 -4 -3 -3 -2 -0 -0 3 4 3 1 -1 -2 -0 -1 0 2 3 -3 -8 -10 -10 -7 -7 0 -1 5 4 -1 -3 -5 -8 -9 -13 -6 -6 -8 -5
-1 -1 0 -1 -2 0 2 -1 -5 -6 -4 -2 2 1 -2 1 -1 -0 1 -1 0 0 -1 1 2 -0 -5 -4 -3 -5 -2 -3 1 2 4 2 -2 -2 0 -2 -4 -5 -7 -6 -5
-0 -1 -0 -1 0 1 1 -3 -1 -3 -2 -2 -1 1 1 -0 0 1 1 -0 -0 -1 1 -1 2 2 -0 -6 -8 -8 -5 -2 4 4 1 0 -1 -6 -4 -4 -6 -8 -6 -5 -5
-2 -2 -1 -1 1 2 -3 -3 -2 -3 -1 2 1 -1 -0 -0 1 -3 -0 0 -0 -1 1 -0 2 3 2 -1 -5 -5 -6 -3 -0 1 2 2 -1 -10 -8 -7 -8 -8 -5 -5 -5
-1 -1 -1 -1 -0 1 2 -0 -0 -0 -2 -1 -1 -1 -1 -0 -1 0 1 -0 0 -1 -1 -2 0 2 2 2 1 1 -1 -3 -1 2 -0 0 -2 -7 -9 -7 -5 -5 -5 -5 -4
-1 -2 -1 -0 -0 0 1 2 -1 0 -0 -0 0 0 0 1 1 1 1 1 -1 -0 -0 -0 -0 -1 -2 -3 -3 -1 0 -1 1 -1 1 -1 -0 -2 -4 -2 -7 -7 -4 -4 -4
-2 -2 -1 -1 -2 0 1 1 -1 1 1 -0 2 -2 0 1 0 1 1 -1 -1 -2 -1 -1 0 -2 -2 -4 -3 -2 -3 -2 -1 -1 -2 -1 -0 -4 -7 -11 -8 -4 -4 -4 -4
-2 -2 -2 -2 -0 0 1 0 -1 1 1 1 0 1 1 0 -1 -1 -1 -1 -1 -1 -1 -1 -0 -1 -0 -3 -1 1 -0 -1 -2 -1 -2 0 -2 -7 -8 -15 -6 -5 -4 -5 -5

GFSSW_850_dewp_330.txt.gz
Dewpoint
-27 -29 -30 -31 -31 -31 -30 -28 -25 -21 -18 -16 -13 -10 -1 4 7 6 8 6 3 1 -10 -4 -6 -7 -6 -4 -4 -4 -1 -0 -1 -2 -4 -8 -8 -7 -7 -7 -7 -7 -5 -4 -3
-21 -22 -23 -25 -27 -29 -30 -30 -27 -22 -20 -19 -15 -13 -7 -2 3 7 4 4 4 1 -9 -7 -7 -7 -6 -5 -3 -2 -1 -1 -4 -7 -5 -7 -8 -7 -7 -8 -7 -6 -6 -3 -4
-23 -24 -23 -22 -23 -24 -26 -27 -28 -26 -19 -17 -15 -13 -9 2 6 2 2 3 2 -9 -5 -7 -8 -8 -7 -6 -3 -3 -0 -2 -6 -7 -9 -7 -8 -9 -8 -6 -8 -7 -6 -5 -4
-21 -20 -21 -23 -22 -22 -23 -24 -25 -24 -17 -10 -10 -12 -6 4 5 -4 -6 -7 -3 -3 -7 -7 -7 -7 -4 -3 -5 -2 -4 -4 -4 -7 -7 -6 -7 -6 -7 -7 -7 -7 -5 -5 -5
-12 -14 -16 -18 -20 -21 -21 -22 -23 -22 -16 -8 -4 -8 -3 5 4 3 1 3 2 -1 -7 -5 -5 -5 -2 -3 -4 -3 -4 -5 -6 -6 -6 -6 -5 -5 -6 -6 -6 -7 -7 -4 -4
4 4 3 1 -4 -9 -17 -20 -20 -21 -15 -7 -4 -3 3 4 -0 -1 1 2 -1 -5 -8 -5 -3 -3 -4 -4 -3 -5 -5 -5 -6 -6 -7 -6 -6 -6 -6 -5 -5 -5 -6 -6 -5
2 2 3 3 2 1 -0 -5 -18 -19 -18 -6 3 3 5 2 1 -3 -2 -1 -6 -9 -8 -3 -3 -4 -2 -2 -3 -5 -3 -3 -3 -4 -5 -2 1 1 -2 -2 -2 -2 -3 -5 -5
1 1 1 0 0 2 2 0 -2 -17 -18 -3 4 2 3 -1 -0 1 -2 -6 -8 -9 -6 -3 -2 -2 -2 -2 -2 -1 -1 1 -1 -2 -1 -0 3 -2 -1 -1 -2 -2 -3 -3 -3
-0 0 0 1 -2 -1 0 1 -0 -6 -14 2 4 4 3 0 1 0 -1 -6 -8 -6 -4 -3 -2 -1 -1 -0 1 0 3 2 1 -0 -1 -1 1 -3 -5 -5 -5 -5 -6 -6 -5
-0 -2 -3 -2 -5 -9 -5 -3 -4 -5 -4 5 4 3 2 0 -1 -1 -1 -5 -6 -4 -4 -3 -2 -0 1 2 5 3 3 2 1 -0 -1 -0 -1 -3 -6 -6 -7 -7 -6 -6 -6
-0 -1 -1 -2 -0 -7 -8 -3 -2 2 5 2 3 2 0 -3 -4 -4 -4 -5 -5 -4 -1 -2 0 2 1 0 1 1 1 0 -2 -3 -2 -2 -2 -2 -4 -5 -5 -5 -6 -5 -5
-2 -1 -1 -4 -4 -3 -4 2 0 3 2 -1 3 2 1 -2 -5 -6 -7 -6 -4 -1 -1 0 2 -1 -2 -2 -1 -0 1 0 -2 -5 -5 -4 -4 -4 -5 -2 -2 -3 -2 -2 -3
-2 -2 -1 -3 -5 0 -0 1 2 0 2 -1 -3 -3 -4 -3 -2 -3 -5 -4 -2 -0 -0 0 -2 -4 -3 -2 -1 -1 0 0 -0 -5 -6 -6 -1 -0 -2 -3 -6 -4 -3 -3 -2
-3 -4 -2 -1 -4 -2 -1 -1 0 0 3 -2 -5 -3 -4 -3 0 -1 -4 -3 -1 -1 -3 -3 -4 -5 -4 -3 -2 1 -6 -4 -4 -4 2 -5 1 0 -1 -1 -5 -6 -5 -6 -7
-5 -6 -6 -3 -1 1 0 -0 1 -1 3 -4 -4 -2 -2 -1 -2 -0 -3 -3 -3 -3 -2 -0 -4 -4 -3 -4 -5 -4 -8 -7 -6 -3 -1 -1 -0 0 -1 -0 -4 -7 -5 -6 -10
-5 -6 -7 -3 0 -0 1 -0 1 1 3 -3 -4 -5 -0 -0 -6 -7 -6 -7 -4 -1 -3 -2 -6 -6 -6 -9 -9 -8 -6 -5 -4 -1 1 -0 1 2 -0 -1 -6 -6 -9 -9 -10
-6 -9 -3 0 -0 0 -0 -1 1 3 -5 -5 -3 -5 -2 -1 -2 -6 -3 -3 3 4 4 0 -1 -7 -8 -5 -9 -8 -1 2 5 4 2 -0 1 1 -2 -3 -3 -6 -10 -13 -11
-9 -5 -1 -0 -0 -0 -0 1 2 0 2 1 0 -5 -3 -2 2 -3 -1 0 -1 1 3 2 2 -5 -7 -5 -3 -4 -0 2 4 5 5 -2 -1 -0 -5 -5 -11 -13 -11 -11 -11
-9 -1 -1 -1 -1 -1 -1 1 2 1 -2 0 -1 0 1 3 3 5 4 4 3 -0 3 2 -2 -9 -9 -9 -8 -3 -2 -4 -0 0 0 -0 -2 -7 -8 -7 -8 -5 -7 -13 -7
-2 -2 -0 -0 -2 0 0 -0 -1 -5 -5 -3 1 1 2 2 3 4 2 0 1 -0 -0 2 2 -5 -9 -10 -9 -7 -6 -1 -1 1 1 -1 -1 -1 -8 -8 -7 -5 -7 -11 -6
-2 -2 -0 -1 -1 0 1 1 1 -5 -4 -2 0 1 1 3 2 3 1 -1 -1 -0 -1 0 1 -2 -5 -4 -3 -5 -2 -2 1 2 1 2 1 -4 -4 -6 -7 -7 -9 -8 -5
-2 -2 -4 -2 -1 0 0 -0 -3 -4 -3 -1 -1 -0 2 3 1 1 1 1 -0 -0 1 -1 -0 3 -0 -6 -7 -7 -3 -1 2 1 -0 -1 0 -4 -5 -6 -7 -8 -10 -6 -5
-2 -2 -4 -1 -0 0 -0 -2 -1 -2 -1 1 1 -0 -0 2 2 -0 1 1 0 1 2 -2 1 1 1 -1 -4 -5 -6 -2 -0 0 1 1 1 -7 -5 -6 -8 -8 -6 -5 -4
-1 -2 -3 -1 -1 0 0 0 1 -3 -1 -2 -1 -1 -1 -1 -1 1 1 1 1 0 -1 -2 -1 0 2 1 -0 -2 -2 -4 -1 2 -2 -1 -2 -9 -9 -6 -5 -6 -6 -4 -4
-2 -2 -2 -1 -2 -1 -1 -1 -0 -1 -1 -1 -1 -0 1 -1 2 1 1 1 0 -0 -0 -2 -1 -2 -1 -2 -2 -1 -1 -1 -3 -1 -0 -2 -1 -1 -3 -4 -8 -6 -4 -4 -4
-2 -2 -2 -3 -2 -1 -1 0 1 1 0 -0 0 1 1 1 1 0 -0 -1 -1 -2 -0 -2 -0 -2 -3 -3 -2 -1 -2 -2 -1 -2 -2 -2 -1 -5 -9 -11 -6 -4 -4 -4 -5
-3 -3 -3 -4 -1 -1 -1 -1 -1 -1 1 0 0 1 1 0 -2 -2 -1 -1 -2 -3 -3 -3 -2 0 -2 -2 -4 -2 -3 -3 -2 -2 -1 1 -2 -7 -9 -12 -5 -5 -5 -5 -5

GFSSW_850_dewp_333.txt.gz
Dewpoint
-24 -24 -24 -23 -23 -23 -23 -25 -26 -27 -28 -22 -18 -16 -14 -11 -7 -4 -4 -2 5 5 2 -8 -4 -7 -7 -6 -5 -4 -2 -1 -2 -3 -4 -8 -7 -8 -7 -7 -7 -6 -5 -5 -3
-21 -21 -22 -22 -23 -23 -22 -22 -23 -24 -25 -23 -17 -10 -12 -7 -6 -3 -8 1 5 3 1 -6 -6 -7 -6 -5 -3 -3 -2 -2 -4 -7 -7 -7 -8 -7 -7 -8 -6 -5 -5 -4 -3
-6 -7 -10 -13 -16 -18 -20 -22 -22 -22 -23 -22 -16 -6 -9 -3 1 -2 -1 0 5 3 3 -6 -7 -7 -7 -6 -2 -3 -1 -3 -4 -7 -8 -8 -8 -9 -8 -7 -7 -6 -4 -4 -3
3 3 4 4 4 2 -5 -10 -16 -21 -20 -21 -16 -8 -6 -0 -1 -3 -3 -6 -3 -6 -7 -6 -7 -7 -7 -5 -4 -2 -3 -4 -4 -5 -7 -6 -7 -6 -7 -8 -7 -7 -6 -4 -4
1 3 2 2 2 2 3 2 -3 -7 -16 -19 -18 -3 4 5 2 -4 0 -1 -1 0 -2 -6 -6 -6 -5 -3 -4 -3 -4 -5 -5 -5 -7 -7 -6 -6 -5 -7 -7 -6 -6 -6 -5
2 1 3 2 2 2 2 2 3 1 -4 -16 -16 2 5 4 -8 -0 2 1 3 2 1 -5 -5 -4 -4 -3 -3 -4 -5 -5 -5 -6 -6 -5 -5 -6 -7 -7 -6 -6 -6 -6 -5
1 1 0 -0 -0 -1 -4 -3 -2 0 -1 -3 -14 3 5 -1 -6 -0 -0 1 1 -4 -5 -6 -5 -3 -3 -2 -2 -3 -3 -3 -3 -4 -4 -6 -0 -1 -6 -6 -4 -4 -4 -6 -6
0 0 0 -1 -4 -5 -4 -8 -8 -8 -5 -2 -6 4 5 -8 -7 -1 -4 -2 -7 -8 -9 -5 -3 -3 -2 -2 -2 -1 -1 1 -1 -2 -2 -3 0 -0 -2 -1 -2 -2 -2 -4 -5
0 -0 -1 -4 -6 -6 -5 -8 -13 -15 -8 -5 4 4 3 -2 -1 -1 -2 -1 -6 -9 -7 -4 -2 -1 -1 -0 1 0 2 2 0 -1 0 -0 1 -3 -2 -1 -2 -3 -3 -3 -3
-1 -2 -3 -4 -6 -7 -4 -2 -5 -1 -1 -3 4 4 2 1 0 1 1 -1 -8 -5 -4 -3 -2 -0 0 1 3 2 2 1 2 0 -0 0 -0 -2 -5 -6 -6 -5 -6 -5 -4
-1 -2 -3 -8 -8 -5 -1 -2 1 0 1 3 3 3 0 1 -1 0 -0 -6 -7 -4 -1 -3 0 2 1 1 1 1 2 1 -1 -1 -1 1 -0 -1 -3 -5 -5 -5 -4 -4 -3
-0 -4 -7 -9 -11 -4 -2 -1 1 2 2 -0 -1 -2 3 1 -2 -3 -1 -4 -5 -2 -2 0 2 -1 -1 -0 1 1 2 1 -1 -4 -4 -3 -2 -2 -4 -3 -2 -1 -2 -2 -4
-3 -6 -9 -9 -13 -1 -4 0 1 -0 1 -2 -4 -3 -6 1 1 -6 -3 -5 -4 -1 -1 2 0 -1 -1 -0 -1 -0 0 0 0 -6 -6 -6 -2 -3 -2 -4 -2 -3 -3 -2 -3
-6 -8 -9 -6 -3 -2 -1 -1 -1 0 1 -2 -1 -2 -2 -5 -4 -3 -6 -6 -2 -2 -0 0 -1 -4 -3 -2 -2 -0 -5 -2 -4 -3 -0 -4 -0 -2 -1 -3 -5 -4 -4 -5 -5
-4 -11 -8 -3 -1 -1 -0 -0 -0 1 -3 -5 -4 -2 -3 -3 -1 -3 -5 -5 -0 -1 -3 -2 -3 -3 -3 -3 -4 -2 -7 -6 -6 -4 -2 -2 -2 -2 -1 -1 -4 -5 -5 -6 -10
-8 -11 -4 -2 -1 -1 -1 -1 -1 -0 -4 -2 -3 -3 -1 -2 -5 -4 -3 -3 -2 -0 -3 -2 -5 -6 -6 -9 -7 -7 -6 -4 -2 -2 -3 -3 -0 -0 -1 -2 -5 -4 -5 -9 -11
-11 -9 -4 -1 -1 -1 -1 -2 1 0 -4 1 3 2 1 2 1 -3 -0 1 1 2 4 1 -1 -7 -8 -7 -9 -3 -1 1 2 2 -0 -2 0 -1 -2 -4 -5 -7 -8 -11 -13
-12 -8 -3 -1 -1 -1 -1 -2 -3 -3 2 1 1 1 -0 1 3 -1 -3 -1 -1 3 3 4 5 -4 -7 -5 -4 -5 -1 -1 2 0 4 -2 -1 -2 -4 -8 -9 -11 -12 -11 -14
-12 -11 -3 -1 -2 0 -2 -4 -1 2 -0 -3 -2 1 3 2 3 1 -1 -0 3 3 3 3 -3 -9 -9 -10 -7 -4 -3 -3 -2 -2 -0 -1 -3 -7 -8 -10 -8 -7 -8 -15 -8
-11 -5 -3 -0 -2 0 -2 -3 -1 -2 -2 -2 0 -0 0 3 3 4 4 3 3 2 0 1 -0 -6 -9 -9 -9 -4 -5 -2 -3 -1 -0 0 -1 -1 -7 -8 -5 -6 -10 -13 -7
-9 -3 -4 -4 -2 -0 -0 -1 -0 -2 -3 -2 -1 -0 1 2 2 4 3 0 -1 0 -1 -1 -2 -2 -6 -5 -5 -5 -4 -2 -2 1 -1 0 -0 -6 -7 -8 -8 -9 -13 -10 -6
-5 -3 -6 -3 -3 -0 -1 -1 -1 -3 -3 -1 -1 0 1 1 3 2 2 1 0 -0 0 -0 -1 2 -1 -4 -6 -6 -3 -2 -1 -3 -3 -2 -0 -5 -7 -9 -11 -11 -9 -7 -5
-4 -2 -5 -3 -2 -2 -2 -2 -0 -1 -1 -1 0 -1 0 2 1 2 0 1 0 0 -1 -1 -0 -1 0 -2 -5 -5 -6 -2 -3 -3 -1 -0 -1 -6 -6 -8 -7 -9 -7 -5 -4
-2 -3 -5 -3 -3 -1 -1 -1 -0 -2 -1 -1 -1 -1 -1 0 1 0 0 1 0 0 -1 -3 -1 -3 -1 -3 -4 -4 -3 -2 -3 -1 -5 -2 -3 -9 -9 -8 -7 -6 -5 -4 -4
-2 -3 -4 -3 -4 -3 -2 -0 0 0 -1 -1 -2 0 -0 -3 -1 -0 1 1 -0 -1 -1 -4 -3 -5 -2 -2 -2 -2 -4 -4 -4 -3 -2 -4 -3 -4 -5 -5 -6 -6 -4 -4 -4
-1 -3 -3 -3 -3 -3 -1 -2 -0 -2 0 -0 0 0 -0 1 -0 -0 -2 -2 -1 -2 -4 -3 -2 -4 -5 -3 -3 -2 -2 -2 -2 -2 -2 -2 -2 -5 -8 -9 -5 -4 -5 -4 -5
-3 -3 -3 -4 -5 -4 -2 -1 -2 -1 0 -1 -0 0 0 -0 -2 -1 -1 -2 -3 -5 -3 -3 -6 -4 -5 -3 -7 -5 -6 -4 -3 -4 -3 -1 -3 -6 -11 -8 -6 -5 -5 -5 -5